This is the latest recevied weather packets stored in our database for station/object EA3AGY-13. If no packets are shown the sender has not sent any weather packets the latest 10 day(s).
| Time | Temp. | Humidity | Pressure | Rain* | Wind** | Luminosity | Snow |
|---|---|---|---|---|---|---|---|
| 1777483175 | 15.56° C | 24% | 1013.2 hPa | 0 mm | - | - | - |
| 1777482574 | 15.56° C | 24% | 1013.2 hPa | 0 mm | - | - | - |
| 1777480767 | 16.67° C | 23% | 1013.1 hPa | 0 mm | - | - | - |
| 1777478960 | 14.44° C | 22% | 1013.1 hPa | 0 mm | - | - | - |
| 1777478357 | 15° C | 20% | 1013 hPa | 0 mm | - | - | - |
| 1777475345 | 16.11° C | 24% | 1013 hPa | 0 mm | - | - | - |
| 1777474141 | 15.56° C | 24% | 1013 hPa | 0 mm | - | - | - |
| 1777471733 | 15.56° C | 23% | 1013 hPa | 0 mm | - | - | - |
| 1777470526 | 15.56° C | 22% | 1013.1 hPa | 0 mm | - | - | - |
| 1777469924 | 15.56° C | 20% | 1013.2 hPa | 0 mm | - | - | - |
| 1777468117 | 15.56° C | 20% | 1013.1 hPa | 0 mm | - | - | - |
| 1777467514 | 14.44° C | 19% | 1013.1 hPa | 0 mm | - | - | - |
| 1777466914 | 15° C | 18% | 1013.3 hPa | 0 mm | - | - | - |
| 1777465707 | 15° C | 18% | 1013.2 hPa | 0 mm | - | - | - |
| 1777465105 | 15° C | 18% | 1013.2 hPa | 0 mm | - | - | - |
| 1777464507 | 15° C | 18% | 1013.2 hPa | 0 mm | - | - | - |
| 1777463296 | 15.56° C | 18% | 1013.1 hPa | 0 mm | - | - | - |
| 1777462695 | 16.11° C | 18% | 1013 hPa | 0 mm | - | - | - |
| 1777461492 | 15.56° C | 19% | 1013.1 hPa | 0 mm | - | - | - |
| 1777460889 | 15.56° C | 20% | 1013.1 hPa | 0 mm | - | - | - |
| 1777459684 | 15° C | 21% | 1013.1 hPa | 0 mm | - | - | - |
| 1777458479 | 15° C | 20% | 1012.9 hPa | 0 mm | - | - | - |
| 1777457876 | 15.56° C | 20% | 1012.9 hPa | 0 mm | - | - | - |
| 1777457274 | 15° C | 20% | 1012.8 hPa | 0 mm | - | - | - |
| 1777456672 | 16.11° C | 22% | 1012.8 hPa | 0 mm | - | - | - |
* Rain since midnight (hover to see other rain measurements)
** Current wind speed in m/s (hover to see current wind gust speed)